User: anonymous
Location: Unspecified
(0.0000°N, 0.0000°E)
Time: 13:39:46
(UTC+02:00)
Language:

Cosmos 1980 Rocket - Orbit

View from above orbital plane
View from above orbital plane
View from above satellite
View from above satellite

Ground track
Ground track

The orbit data is extracted from the following two-line orbital elements,

1 19650U 88102B   14245.08711479  .00000302  00000-0  17816-3 0  3651
2 19650 071.0029 357.8530 0016340 291.3733 119.1859 14.15669939331762
Epoch (UTC): 02 September 2014 02:05:26
Eccentricity: 0.0016340
inclination: 71.0029°
perigee height: 828 km
apogee height: 852 km
right ascension of ascending node: 357.8530°
argument of perigee: 291.3733°
revolutions per day: 14.15669939
mean anomaly at epoch: 119.1859°
orbit number at epoch: 33176

The dashed part of the orbit path shows where the satellite is in the earth's shadow,  

DLR